Regional Weather Roundup
Issued by NWS Upton, NY

Current Version | Previous Version | Text Only | Print | Product List | Glossary On
Versions: 1 2 3 4 5 6 7 8 9 10 11 12 13 14 15 16 17 18 19 20 21 22 23 24 25 26 27 28 29 30 31 32 33 34 35 36 37 38 39 40 41 42 43 44 45 46 47 48 49 50
000
ASUS41 KOKX 011407
RWROKX

REGIONAL WEATHER ROUNDUP
NATIONAL WEATHER SERVICE NEW YORK NY
1000 AM EDT WED APR 01 2015

NOTE: "FAIR" INDICATES FEW OR NO CLOUDS BELOW 12,000 FEET WITH NO
SIGNIFICANT WEATHER AND/OR OBSTRUCTIONS TO VISIBILITY.

NYZ071-072-176-178-NJZ106-104-011500-
NEW YORK CITY METRO AREA


CITY           SKY/WX    TMP DP  RH WIND       PRES   REMARKS
CENTRAL PARK   CLOUDY    35  17  47 VRB3      30.10R
LAGUARDIA APRT CLOUDY    36  17  46 NW10      30.08R WCI  28
KENNEDY INTL   PTSUNNY   41  13  31 N13       30.08R
NEWARK/LIBERTY PTSUNNY   39  20  46 W8        30.09R WCI  33
BRNX BOT. GARD   N/A    N/A N/A N/A W2        30.08R
TETERBORO      PTSUNNY   37  17  44 NW7       30.08R WCI  32
$$

NYZ177-179-078>081-011500-
LONG ISLAND NEW YORK

CITY           SKY/WX    TMP DP  RH WIND       PRES   REMARKS
FARMINGDALE    MOSUNNY   40  14  34 N9        30.05R WCI  34
ISLIP          PTSUNNY   39  13  34 N13       30.03R WCI  31
SHIRLEY        MOSUNNY   39  17  41 N9        30.04R WCI  33
WESTHAMPTON    PTSUNNY   38  14  37 N12G22    30.03R WCI  30
MONTAUK POINT    N/A     38  15  39 N8        30.01R WCI  32
$$

NYZ052-065-067-011500-
HUDSON VALLEY

CITY           SKY/WX    TMP DP  RH WIND       PRES   REMARKS
WHITE PLAINS   PTSUNNY   35  13  40 N10       30.04R WCI  27
NEWBURGH       MOSUNNY   32  25  74 CALM      30.06R
MONTGOMERY     MOSUNNY   35  23  61 CALM      30.04R
POUGHKEEPSIE   MOSUNNY   36  19  50 W6        30.06R WCI  31
ALBANY         MOSUNNY   38   7  27 N6        30.05R WCI  33
$$

NJZ001-105-106-008-010-013-015-019>022-104-011500-
NEW JERSEY

CITY           SKY/WX    TMP DP  RH WIND       PRES   REMARKS
NEWARK/LIBERTY PTSUNNY   39  20  46 W8        30.09R WCI  33
TETERBORO      PTSUNNY   37  17  44 NW7       30.08R WCI  32
CALDWELL       PTSUNNY   35  18  49 NW6       30.08R WCI  30
MORRISTOWN     MOSUNNY   34  19  55 NW8       30.08R WCI  27
SOMERVILLE     MOSUNNY   38  15  39 NW10      30.08R WCI  31
SUSSEX         PTSUNNY   36  17  46 N7        30.06R WCI  30
ANDOVER          N/A     35  21  56 N3        30.06R
TRENTON        MOSUNNY   40  21  46 N7        30.09R
MILLVILLE      SUNNY     43  26  51 NW14G20   30.11R
ATLANTIC CITY  SUNNY     42  20  41 N13       30.09R
WRIGHTSTOWN    SUNNY     41  22  46 NW17      30.06R
TOMS RIVER     SUNNY     39  18  41 N12G17    30.09R WCI  32
BELMAR         MOSUNNY   39  19  45 NW14      30.07R WCI  31
$$

PAZ047>061-062-071-011500-
EASTERN PENNSYLVANIA

CITY           SKY/WX    TMP DP  RH WIND       PRES   REMARKS
PHILADELPHIA   MOSUNNY   43  24  47 N10G17    30.12R
ALLENTOWN      SUNNY     37  26  64 W5        30.09R WCI  33
SCRANTON       SUNNY     33  27  78 CALM      30.07R
$$

CTZ002-004>006-009-010-012-RIZ004-006-007-MAZ004-011-015-011500-
SOUTHERN NEW ENGLAND
 IN CT

CITY           SKY/WX    TMP DP  RH WIND       PRES   REMARKS
BRADLEY INTL   PTSUNNY   39   4  23 N13       30.01R WCI  31
HARTFORD       MOSUNNY   38   8  29 N9        30.03R WCI  31
DANBURY        MOSUNNY   35  11  36 N8        30.04R WCI  29
WTRBRY/OXFORD  MOSUNNY   34  12  40 N12       30.02R WCI  25
BRIDGEPORT     MOSUNNY   41  13  31 N10       30.04R
MERIDEN        MOSUNNY   39   8  27 N12G18    30.02R WCI  32
NEW HAVEN      PTSUNNY   39  11  31 N14G20    30.02R WCI  31
CHESTER        FAIR      36   9  32 N14       30.00R WCI  27
GROTON         PTSUNNY   38  12  34 N15       30.01R WCI  29
WILLIMANTIC    SUNNY     37   6  27 N10       30.01R WCI  30

 IN RI

CITY           SKY/WX    TMP DP  RH WIND       PRES   REMARKS
PROVIDENCE     PTSUNNY   39   6  25 N14       29.99R WCI  31
BLOCK ISLAND   PTSUNNY   37  12  35 N10G18    29.98R WCI  30
WESTERLY       MOSUNNY   38  13  35 N12       30.00R WCI  30

 IN MA

CITY           SKY/WX    TMP DP  RH WIND       PRES   REMARKS
BOSTON         MOSUNNY   36   8  31 N10       29.99R WCI  28
WORCESTER      SUNNY     33   3  28 NW13      29.95R WCI  24
WESTFIELD      SUNNY     38   3  23 N10       30.01R WCI  31
PROVINCETOWN   SUNNY     37  18  44 N15G22    29.96R WCI  28
NANTUCKET      SUNNY     40  21  46 N24       29.92R WCI  29
$$

ANZ330-335-338-340-345-350-353-355-011500-
COASTAL MARINE OBSERVATIONS


STATION/POSITION TIME  SKY/WX   TEMP    WIND        PRES    VSBY  WAVE
                                AIR SEA DIR/SP/G                  HT/PER
                 (UTC)          (F)     (DEG/KT/KT) (MB)    (MI)  (FT/S)
NY HARB ENTRANCE 1350            37 39  330/ 12/ 14 1017.5          2/ 8
4S FIRE IS       1303               37                N/A           3/ 8
20S FIRE ISLAND  NOT AVBL
23SW MTP         1350                                 N/A           4/ 8
HUDSON CANYON    NOT AVBL
EXECUTION ROCKS  NOT AVBL
WESTERN LI SOUND NOT AVBL
CENTRAL LI SOUND NOT AVBL
EASTERN LI SOUND NOT AVBL
ROBBINS REEF     1300            35     340/ 10/ 14 1016.6
$$


>>>>>>>>>>>>>>>>>>>>>>>>>>>> KEY <<<<<<<<<<<<<<<<<<<<<<<<<<<
>                                                          <
>     SKY/WX - SKY CONDITION/PRESENT WEATHER               <
>     TMP    - TEMPERATURE IN FAHRENHEIT                   <
>     DP     - DEWPOINT IN FAHRENHEIT                      <
>     RH     - RELATIVE HUMIDITY IN PERCENT                <
>     WIND   - DIRECTION AND SPEED IN MPH                  <
>     PRES   - MEAN SEA LEVEL PRESSURE IN INCHES OF HG     <
>     WCI    - WIND CHILL INDEX                            <
>     VSB    - VISIBILITY IN MILES                         <
>     HX     - HEAT INDEX                                  <
>     TC     - TEMPERATURE IN CELSIUS                      <
>     VRB    - VARIABLE WIND DIRECTION                     <
>                                                          <
>>>>>>>>>>>>>>>>>>>>>>>>>>>> KEY <<<<<<<<<<<<<<<<<<<<<<<<<<<





USA.gov is the U.S. government's official web portal to all federal, state and local government web resources and services.